Flag for Germany Weather past 2 weeks in Biberach an der Riss, Baden-Württemberg, Germany

Now
32 °F

Passing clouds.


Feels Like: 26 °F
Forecast: 25 / 42 °F
Wind: 6 mph from South

Location: Laupheim Airport

Current Time: Feb 28, 2015 at 10:33:11 PM

Latest Report: Feb 28, 2015 at 9:20 PM


Visibility: N/A

Pressure: 30.04 "Hg

Humidity: 93%

Dew point: 30 °F

Location of Biberach an der RissLocation

Historic Weather in Biberach an der Riss — Graph

°F

Biberach an der Riss temperature yesterday

Maximum temperature yesterday: 34 °F (at 1:20 PM)
Minimum temperature yesterday: 25 °F (at 1:20 AM)
Average temperature yesterday: 31 °F

Past Weeks' High & Low Weather Summary

 TemperatureHumidityPressure
High48 °F (Feb 20, 2:20 PM)100% (Feb 13, 11:20 PM)30.66 "Hg (Feb 13, 11:20 PM)
Low21 °F (Feb 14, 5:20 AM)39% (Feb 26, 3:20 PM)29.50 "Hg (Feb 21, 12:20 PM)
Average31 °F89%30.00 "Hg
* Reported Feb 13 8:20 PM — Feb 28 8:20 PM, Biberach an der Riss, Weather by CustomWeather, © 2015

Note: Actual official high and low records may vary slightly from our data, if they occured in-between our weather recording intervals... More about our weather records

Advertising

Biberach an der Riss weather history for previous 24 hours

 ConditionsComfort  
Time TempWeatherWind HumidityBarometerVisibility
8:20 PM
Sat, Feb 28
32 °FPassing clouds.7 mph93%30.07 "HgN/A
7:20 PM34 °FPassing clouds.5 mph87%30.07 "HgN/A
6:20 PM36 °FPartly cloudy.6 mph81%30.07 "HgN/A
5:20 PM36 °FBroken clouds.5 mph81%30.07 "HgN/A
4:20 PM37 °FScattered clouds.5 mph75%30.07 "HgN/A
3:20 PM37 °FPartly sunny.3 mph75%30.07 "HgN/A
2:20 PM37 °FPartly sunny.3 mph75%30.09 "HgN/A
1:20 PM37 °FBroken clouds.5 mph75%30.09 "HgN/A
12:20 PM37 °FPartly sunny.3 mph75%30.12 "HgN/A
11:20 AM36 °FScattered clouds.3 mph81%30.15 "HgN/A
10:20 AM36 °FPartly sunny.2 mph81%30.15 "HgN/A
9:20 AM34 °FPartly sunny.No wind93%30.15 "HgN/A
8:20 AM34 °FPartly sunny.2 mph93%30.15 "Hg6 mi
7:20 AM34 °FPartly sunny.2 mph93%30.12 "Hg5 mi
6:20 AM34 °FPassing clouds.3 mph93%30.12 "HgN/A
5:20 AM34 °FPassing clouds.3 mph93%30.09 "Hg5 mi
4:20 AM34 °FLight snow. Passing clouds.6 mph93%30.09 "Hg4 mi
3:20 AM34 °FLight snow. Partly cloudy.6 mph93%30.09 "Hg4 mi
2:20 AM34 °FLight snow. Partly cloudy.6 mph93%30.09 "Hg4 mi
1:20 AM34 °FLight snow. Partly cloudy.7 mph93%30.09 "Hg4 mi
12:20 AM34 °FLight snow. Fog.7 mph93%30.09 "Hg2 mi
11:20 PM
Fri, Feb 27
34 °FLight snow. Fog.7 mph93%30.09 "Hg2 mi
10:20 PM34 °FLight rain. Fog.8 mph93%30.07 "Hg3 mi
Weather by CustomWeather, © 2015

See weather overviewHow to use our weather pages